Tracking 29892 objects as of 21-Nov-2024
HD Live streaming from Space Station
objects crossing your sky now

STARLINK-3359

Track STARLINK-3359 now!
10-day predictions
STARLINK-3359 is classified as:


NORAD ID: 51148
Int'l Code: 2022-005AW
Perigee: 545.6 km
Apogee: 548.2 km
Inclination: 53.2 °
Period: 95.4 minutes
Semi major axis: 6917 km
RCS: Unknown
Launch date: January 19, 2022
Source: United States (US)
Launch site: AIR FORCE EASTERN TEST RANGE (AFETR)
Your satellite tracking list
Your tracking list is empty




NASA's NSSDC Master Catalog

Two Line Element Set (TLE):
1 51148U 22005AW  24325.88295765  .00000451  00000-0  46451-4 0  9998
2 51148  53.2174 276.3198 0001834  95.9882 264.1319 15.08837820157063
Source of the keplerian elements: AFSPC